| time (UTC) | temp C | wind direction | speed KPH | gust KPH | rain 1hr cm | rain 24hr cm | rain mn cm | humidity % | barometer mb |
| 20260902210520 | -17 | 201 | 3.2 | 3.2 | 0.00 | 0.00 | 0.00 | 53 | 975.3 |
| 20260902210020 | -17 | 215 | 3.2 | 3.2 | 0.00 | 0.00 | 0.00 | 57 | 975.1 |
| 20260902205520 | -17 | 215 | 1.6 | 1.6 | 0.00 | 0.00 | 0.00 | 55 | 975.3 |
| 20260902205019 | -17 | 216 | 1.6 | 1.6 | 0.00 | 0.00 | 0.00 | 59 | 975.4 |
| 20260902204519 | -17 | 216 | 1.6 | 1.6 | 0.00 | 0.00 | 0.00 | 63 | 975.4 |
| 20260902204019 | -17 | 216 | 1.6 | 1.6 | 0.00 | 0.00 | 0.00 | 66 | 975.7 |
| 20260902203518 | -17 | 215 | 1.6 | 1.6 | 0.00 | 0.00 | 0.00 | 64 | 975.7 |
| 20260902203018 | -17 | 216 | 1.6 | 3.2 | 0.00 | 0.00 | 0.00 | 63 | 975.9 |
| 20260902202517 | -17 | 206 | 1.6 | 3.2 | 0.00 | 0.00 | 0.00 | 65 | 976.2 |
| 20260902202017 | -17 | 203 | 1.6 | 0.0 | 0.00 | 0.00 | 0.00 | 68 | 976.0 |
| 20260902201517 | -17 | 202 | 1.6 | 1.6 | 0.00 | 0.00 | 0.00 | 68 | 976.0 |
| 20260902201016 | -17 | 201 | 3.2 | 3.2 | 0.00 | 0.00 | 0.00 | 71 | 976.2 |
| 20260902200516 | -17 | 198 | 1.6 | 1.6 | 0.00 | 0.00 | 0.00 | 72 | 976.2 |
| 20260902200016 | -17 | 199 | 0.0 | 0.0 | 0.00 | 0.00 | 0.00 | 71 | 975.9 |
| 20260902195515 | -17 | 198 | 0.0 | 0.0 | 0.00 | 0.00 | 0.00 | 71 | 975.7 |
| 20260902195015 | -17 | 199 | 1.6 | 0.0 | 0.00 | 0.00 | 0.00 | 74 | 975.7 |
| 20260902194514 | -17 | 199 | 1.6 | 1.6 | 0.00 | 0.00 | 0.00 | 76 | 975.8 |
| 20260902194014 | -17 | 198 | 0.0 | 1.6 | 0.00 | 0.00 | 0.00 | 75 | 976.2 |
| 20260902193514 | -17 | 198 | 0.0 | 0.0 | 0.00 | 0.00 | 0.00 | 76 | 976.2 |
| 20260902193013 | -17 | 198 | 0.0 | 1.6 | 0.00 | 0.00 | 0.00 | 77 | 976.1 |
| 20260902192513 | -17 | 198 | 1.6 | 1.6 | 0.00 | 0.00 | 0.00 | 76 | 976.2 |
| 20260902192013 | -17 | 198 | 1.6 | 1.6 | 0.00 | 0.00 | 0.00 | 76 | 976.3 |
| 20260902191512 | -17 | 198 | 0.0 | 0.0 | 0.00 | 0.00 | 0.00 | 76 | 976.3 |
| 20260902191011 | -17 | 198 | 1.6 | 1.6 | 0.00 | 0.00 | 0.00 | 75 | 976.2 |
| 20260902190511 | -17 | 198 | 1.6 | 1.6 | 0.00 | 0.00 | 0.00 | 74 | 976.2 |
| 20260902190010 | -17 | 198 | 0.0 | 0.0 | 0.00 | 0.00 | 0.00 | 74 | 976.4 |
| 20260902185510 | -17 | 198 | 3.2 | 3.2 | 0.00 | 0.00 | 0.00 | 74 | 976.1 |
| 20260902185010 | -17 | 198 | 0.0 | 0.0 | 0.00 | 0.00 | 0.00 | 74 | 976.1 |
| 20260902184509 | -17 | 198 | 1.6 | 1.6 | 0.00 | 0.00 | 0.00 | 74 | 976.0 |
| 20260902184009 | -17 | 198 | 1.6 | 1.6 | 0.00 | 0.00 | 0.00 | 73 | 976.2 |
| 20260902183509 | -17 | 198 | 1.6 | 1.6 | 0.00 | 0.00 | 0.00 | 72 | 976.0 |
| 20260902183009 | -17 | 198 | 1.6 | 1.6 | 0.00 | 0.00 | 0.00 | 72 | 976.0 |
| 20260902182508 | -17 | 198 | 1.6 | 1.6 | 0.00 | 0.00 | 0.00 | 71 | 975.9 |
| 20260902182007 | -17 | 198 | 1.6 | 1.6 | 0.00 | 0.00 | 0.00 | 71 | 976.1 |
| 20260902181507 | -17 | 198 | 1.6 | 1.6 | 0.00 | 0.00 | 0.00 | 73 | 975.9 |
| 20260902181006 | -17 | 198 | 1.6 | 1.6 | 0.00 | 0.00 | 0.00 | 70 | 976.1 |
| 20260902180506 | -17 | 198 | 0.0 | 0.0 | 0.00 | 0.00 | 0.00 | 72 | 976.0 |
| 20260902180007 | -17 | 198 | 0.0 | 0.0 | 0.00 | 0.00 | 0.00 | 72 | 976.2 |
| 20260902175505 | -17 | 198 | 1.6 | 1.6 | 0.00 | 0.00 | 0.00 | 71 | 976.0 |
| 20260902175005 | -17 | 198 | 1.6 | 1.6 | 0.00 | 0.00 | 0.00 | 70 | 976.1 |
| 20260902174504 | -17 | 198 | 1.6 | 3.2 | 0.00 | 0.00 | 0.00 | 71 | 976.4 |
| 20260902174004 | -17 | 198 | 3.2 | 3.2 | 0.00 | 0.00 | 0.00 | 68 | 976.4 |
| 20260902173504 | -17 | 160 | 3.2 | 3.2 | 0.00 | 0.00 | 0.00 | 69 | 976.4 |
| 20260902173003 | -17 | 193 | 1.6 | 3.2 | 0.00 | 0.00 | 0.00 | 69 | 976.5 |
| 20260902172503 | -17 | 193 | 1.6 | 1.6 | 0.00 | 0.00 | 0.00 | 73 | 976.4 |
| 20260902172002 | -17 | 161 | 1.6 | 1.6 | 0.00 | 0.00 | 0.00 | 71 | 976.3 |
| 20260902171502 | -17 | 160 | 1.6 | 1.6 | 0.00 | 0.00 | 0.00 | 74 | 976.2 |
| 20260902171001 | -17 | 161 | 1.6 | 1.6 | 0.00 | 0.00 | 0.00 | 71 | 976.4 |
| 20260902170501 | -17 | 161 | 0.0 | 1.6 | 0.00 | 0.00 | 0.00 | 72 | 976.8 |
| 20260902170001 | -17 | 161 | 1.6 | 1.6 | 0.00 | 0.00 | 0.00 | 73 | 976.5 |
| 20260902165500 | -17 | 160 | 0.0 | 0.0 | 0.00 | 0.00 | 0.00 | 70 | 976.7 |
| 20260902165000 | -17 | 161 | 1.6 | 1.6 | 0.00 | 0.00 | 0.00 | 72 | 976.7 |
| 20260902164459 | -17 | 161 | 0.0 | 0.0 | 0.00 | 0.00 | 0.00 | 73 | 977.0 |
| 20260902163959 | -17 | 161 | 1.6 | 1.6 | 0.00 | 0.00 | 0.00 | 73 | 976.8 |
| 20260902163459 | -17 | 151 | 3.2 | 3.2 | 0.00 | 0.00 | 0.00 | 71 | 977.0 |
| 20260902162958 | -17 | 140 | 1.6 | 1.6 | 0.00 | 0.00 | 0.00 | 72 | 976.7 |
| 20260902162458 | -17 | 140 | 1.6 | 1.6 | 0.00 | 0.00 | 0.00 | 75 | 976.6 |
| 20260902161958 | -17 | 140 | 0.0 | 0.0 | 0.00 | 0.00 | 0.00 | 75 | 976.7 |
| 20260902161457 | -17 | 140 | 1.6 | 1.6 | 0.00 | 0.00 | 0.00 | 77 | 976.7 |
| 20260902160957 | -17 | 138 | 1.6 | 1.6 | 0.00 | 0.00 | 0.00 | 75 | 976.8 |
| 20260902160457 | -17 | 138 | 0.0 | 0.0 | 0.00 | 0.00 | 0.00 | 75 | 976.7 |
| 20260902155956 | -17 | 138 | 0.0 | 0.0 | 0.00 | 0.00 | 0.00 | 76 | 976.5 |
| 20260902155456 | -17 | 138 | 1.6 | 1.6 | 0.00 | 0.00 | 0.00 | 77 | 976.5 |
| 20260902154956 | -17 | 137 | 1.6 | 1.6 | 0.00 | 0.00 | 0.00 | 76 | 976.6 |
| 20260902154455 | -17 | 137 | 0.0 | 0.0 | 0.00 | 0.00 | 0.00 | 75 | 976.6 |
| 20260902153955 | -17 | 137 | 0.0 | 0.0 | 0.00 | 0.00 | 0.00 | 76 | 976.4 |
| 20260902153454 | -17 | 137 | 0.0 | 0.0 | 0.00 | 0.00 | 0.00 | 75 | 976.5 |
| 20260902152954 | -17 | 138 | 0.0 | 0.0 | 0.00 | 0.00 | 0.00 | 74 | 976.7 |
| 20260902152453 | -17 | 138 | 0.0 | 0.0 | 0.00 | 0.00 | 0.00 | 74 | 976.8 |
| 20260902151953 | -17 | 137 | 0.0 | 0.0 | 0.00 | 0.00 | 0.00 | 74 | 976.7 |
| 20260902151453 | -17 | 137 | 0.0 | 0.0 | 0.00 | 0.00 | 0.00 | 75 | 976.8 |
| 20260902150952 | -17 | 137 | 0.0 | 0.0 | 0.00 | 0.00 | 0.00 | 75 | 976.6 |
| 20260902150452 | -17 | 137 | 1.6 | 1.6 | 0.00 | 0.00 | 0.00 | 75 | 976.6 |
| 20260902145952 | -17 | 137 | 1.6 | 1.6 | 0.00 | 0.00 | 0.00 | 76 | 976.7 |
| 20260902145451 | -17 | 138 | 3.2 | 3.2 | 0.00 | 0.00 | 0.00 | 74 | 976.8 |
| 20260902144951 | -17 | 138 | 0.0 | 0.0 | 0.00 | 0.00 | 0.00 | 75 | 976.6 |
| 20260902144451 | -17 | 138 | 1.6 | 1.6 | 0.00 | 0.00 | 0.00 | 73 | 976.7 |
| 20260902143950 | -17 | 137 | 0.0 | 0.0 | 0.00 | 0.00 | 0.00 | 75 | 976.6 |
| 20260902143450 | -17 | 138 | 0.0 | 0.0 | 0.00 | 0.00 | 0.00 | 75 | 976.7 |
| 20260902142950 | -17 | 139 | 0.0 | 0.0 | 0.00 | 0.00 | 0.00 | 78 | 976.7 |
| 20260902142449 | -17 | 138 | 1.6 | 1.6 | 0.00 | 0.00 | 0.00 | 77 | 976.5 |
| 20260902141949 | -17 | 138 | 1.6 | 1.6 | 0.00 | 0.00 | 0.00 | 76 | 976.5 |
| 20260902141448 | -17 | 138 | 0.0 | 0.0 | 0.00 | 0.00 | 0.00 | 77 | 976.8 |
| 20260902140948 | -17 | 139 | 1.6 | 1.6 | 0.00 | 0.00 | 0.00 | 76 | 977.1 |
| 20260902140448 | -17 | 139 | 1.6 | 1.6 | 0.00 | 0.00 | 0.00 | 77 | 976.9 |
| 20260902135947 | -17 | 139 | 0.0 | 0.0 | 0.00 | 0.00 | 0.00 | 80 | 977.1 |
| 20260902135447 | -17 | 139 | 1.6 | 1.6 | 0.00 | 0.00 | 0.00 | 80 | 976.9 |
| 20260902134947 | -17 | 136 | 0.0 | 0.0 | 0.00 | 0.00 | 0.00 | 83 | 977.0 |
| 20260902134446 | -17 | 145 | 1.6 | 1.6 | 0.00 | 0.00 | 0.00 | 86 | 977.0 |
| 20260902133946 | -17 | 145 | 0.0 | 0.0 | 0.00 | 0.00 | 0.00 | 85 | 977.0 |
| 20260902133445 | -17 | 145 | 1.6 | 1.6 | 0.00 | 0.00 | 0.00 | 86 | 977.3 |
| 20260902132945 | -17 | 145 | 0.0 | 0.0 | 0.00 | 0.00 | 0.00 | 86 | 976.8 |
| 20260902132445 | -17 | 145 | 1.6 | 1.6 | 0.00 | 0.00 | 0.00 | 88 | 977.3 |
| 20260902131945 | -17 | 144 | 3.2 | 1.6 | 0.00 | 0.00 | 0.00 | 87 | 977.4 |
| 20260902131444 | -17 | 145 | 0.0 | 0.0 | 0.00 | 0.00 | 0.00 | 87 | 977.2 |
| 20260902130944 | -17 | 145 | 1.6 | 1.6 | 0.00 | 0.00 | 0.00 | 88 | 977.1 |
| 20260902130444 | -17 | 145 | 1.6 | 1.6 | 0.00 | 0.00 | 0.00 | 87 | 976.9 |
| 20260902125943 | -17 | 145 | 0.0 | 0.0 | 0.00 | 0.00 | 0.00 | 88 | 976.9 |
| 20260902125443 | -17 | 144 | 0.0 | 0.0 | 0.00 | 0.00 | 0.00 | 88 | 976.9 |
| 20260902124943 | -17 | 145 | 0.0 | 0.0 | 0.00 | 0.00 | 0.00 | 88 | 977.0 |
| 20260902124442 | -17 | 145 | 0.0 | 0.0 | 0.00 | 0.00 | 0.00 | 89 | 977.0 |
| 20260902123942 | -17 | 145 | 0.0 | 0.0 | 0.00 | 0.00 | 0.00 | 89 | 976.9 |
| 20260902123442 | -17 | 145 | 1.6 | 1.6 | 0.00 | 0.00 | 0.00 | 89 | 976.8 |
| 20260902122941 | -17 | 145 | 0.0 | 0.0 | 0.00 | 0.00 | 0.00 | 89 | 977.0 |
| 20260902122441 | -17 | 123 | 0.0 | 0.0 | 0.00 | 0.00 | 0.00 | 88 | 977.0 |
| 20260902121941 | -17 | 123 | 0.0 | 0.0 | 0.00 | 0.00 | 0.00 | 89 | 977.2 |
| 20260902121440 | -17 | 123 | 1.6 | 1.6 | 0.00 | 0.00 | 0.00 | 88 | 977.6 |
| 20260902120940 | -17 | 126 | 1.6 | 1.6 | 0.00 | 0.00 | 0.00 | 88 | 977.6 |
| 20260902120440 | -17 | 126 | 0.0 | 0.0 | 0.00 | 0.00 | 0.00 | 88 | 977.7 |
| 20260902115939 | -17 | 126 | 1.6 | 1.6 | 0.00 | 0.00 | 0.00 | 88 | 977.7 |
| 20260902115439 | -17 | 126 | 1.6 | 1.6 | 0.00 | 0.00 | 0.00 | 86 | 977.3 |
| 20260902114939 | -17 | 126 | 0.0 | 0.0 | 0.00 | 0.00 | 0.00 | 86 | 977.4 |
| 20260902114438 | -17 | 126 | 1.6 | 1.6 | 0.00 | 0.00 | 0.00 | 85 | 977.3 |
| 20260902113938 | -17 | 126 | 0.0 | 0.0 | 0.00 | 0.00 | 0.00 | 86 | 977.3 |
| 20260902113438 | -17 | 126 | 0.0 | 0.0 | 0.00 | 0.00 | 0.00 | 85 | 977.2 |
| 20260902112937 | -17 | 126 | 0.0 | 0.0 | 0.00 | 0.00 | 0.00 | 85 | 976.9 |
| 20260902112437 | -17 | 126 | 0.0 | 0.0 | 0.00 | 0.00 | 0.00 | 84 | 976.9 |
| 20260902111937 | -17 | 126 | 0.0 | 0.0 | 0.00 | 0.00 | 0.00 | 85 | 976.8 |
| 20260902111436 | -17 | 126 | 0.0 | 0.0 | 0.00 | 0.00 | 0.00 | 85 | 976.8 |
| 20260902110936 | -17 | 126 | 1.6 | 0.0 | 0.00 | 0.00 | 0.00 | 83 | 976.6 |
| 20260902110436 | -17 | 125 | 0.0 | 0.0 | 0.00 | 0.00 | 0.00 | 82 | 976.5 |
| 20260902105935 | -17 | 110 | 0.0 | 0.0 | 0.00 | 0.00 | 0.00 | 82 | 976.6 |
| 20260902105435 | -17 | 76 | 0.0 | 0.0 | 0.00 | 0.00 | 0.00 | 81 | 976.5 |
| 20260902104935 | -17 | 39 | 1.6 | 1.6 | 0.00 | 0.00 | 0.00 | 81 | 976.4 |
| 20260902104434 | -17 | 36 | 0.0 | 0.0 | 0.00 | 0.00 | 0.00 | 81 | 976.1 |
| 20260902103934 | -17 | 36 | 0.0 | 0.0 | 0.00 | 0.00 | 0.00 | 80 | 976.3 |
| 20260902103434 | -17 | 36 | 0.0 | 0.0 | 0.00 | 0.00 | 0.00 | 80 | 976.2 |
| 20260902102933 | -17 | 347 | 0.0 | 0.0 | 0.00 | 0.00 | 0.00 | 79 | 976.4 |
| 20260902102433 | -17 | 347 | 1.6 | 1.6 | 0.00 | 0.00 | 0.00 | 80 | 976.4 |
| 20260902101933 | -17 | 347 | 0.0 | 0.0 | 0.00 | 0.00 | 0.00 | 80 | 976.4 |
| 20260902101432 | -17 | 347 | 0.0 | 0.0 | 0.00 | 0.00 | 0.00 | 80 | 976.6 |
| 20260902100932 | -17 | 347 | 0.0 | 0.0 | 0.00 | 0.00 | 0.00 | 80 | 976.6 |
| 20260902100432 | -17 | 347 | 0.0 | 0.0 | 0.00 | 0.00 | 0.00 | 81 | 976.5 |
| 20260902095931 | -17 | 347 | 1.6 | 1.6 | 0.00 | 0.00 | 0.00 | 82 | 976.6 |
| 20260902095431 | -17 | 347 | 0.0 | 0.0 | 0.00 | 0.00 | 0.00 | 82 | 976.5 |
| 20260902094931 | -17 | 347 | 1.6 | 1.6 | 0.00 | 0.00 | 0.00 | 82 | 976.7 |
| 20260902094430 | -17 | 347 | 1.6 | 1.6 | 0.00 | 0.00 | 0.00 | 81 | 976.6 |
| 20260902093930 | -17 | 347 | 1.6 | 1.6 | 0.00 | 0.00 | 0.00 | 81 | 976.8 |
| 20260902093430 | -17 | 347 | 1.6 | 1.6 | 0.00 | 0.00 | 0.00 | 80 | 976.8 |
| 20260902092930 | -17 | 347 | 1.6 | 1.6 | 0.00 | 0.00 | 0.00 | 80 | 976.8 |
| 20260902092429 | -17 | 344 | 3.2 | 3.2 | 0.00 | 0.00 | 0.00 | 80 | 977.2 |
| 20260902091929 | -17 | 344 | 1.6 | 3.2 | 0.00 | 0.00 | 0.00 | 80 | 977.1 |
| 20260902091428 | -17 | 343 | 3.2 | 3.2 | 0.00 | 0.00 | 0.00 | 79 | 977.4 |
| 20260902090928 | -17 | 340 | 3.2 | 4.8 | 0.00 | 0.00 | 0.00 | 79 | 977.5 |
| 20260902090428 | -17 | 338 | 3.2 | 3.2 | 0.00 | 0.00 | 0.00 | 78 | 977.4 |
| 20260902085927 | -17 | 339 | 1.6 | 1.6 | 0.00 | 0.00 | 0.00 | 79 | 977.5 |
| 20260902085427 | -17 | 341 | 4.8 | 4.8 | 0.00 | 0.00 | 0.00 | 81 | 977.4 |
| 20260902084927 | -17 | 329 | 12.9 | 16.1 | 0.00 | 0.00 | 0.00 | 87 | 977.7 |
| 20260902084426 | -17 | 170 | 0.0 | 0.0 | 0.00 | 0.00 | 0.00 | 88 | 975.9 |
| 20260902083926 | -17 | 170 | 3.2 | 3.2 | 0.00 | 0.00 | 0.00 | 87 | 975.5 |
| 20260902083426 | -17 | 170 | 1.6 | 1.6 | 0.00 | 0.00 | 0.00 | 87 | 975.6 |
| 20260902082925 | -17 | 170 | 1.6 | 1.6 | 0.00 | 0.00 | 0.00 | 88 | 975.8 |
| 20260902082425 | -17 | 170 | 0.0 | 0.0 | 0.00 | 0.00 | 0.00 | 89 | 975.7 |
| 20260902081925 | -17 | 170 | 0.0 | 0.0 | 0.00 | 0.00 | 0.00 | 87 | 975.6 |
| 20260902081424 | -17 | 170 | 0.0 | 0.0 | 0.00 | 0.00 | 0.00 | 88 | 975.9 |
| 20260902080924 | -17 | 170 | 0.0 | 0.0 | 0.00 | 0.00 | 0.00 | 86 | 975.8 |
| 20260902080424 | -17 | 170 | 1.6 | 1.6 | 0.00 | 0.00 | 0.00 | 87 | 975.7 |
| 20260902075924 | -17 | 170 | 1.6 | 1.6 | 0.00 | 0.00 | 0.00 | 88 | 975.7 |
| 20260902075423 | -17 | 170 | 1.6 | 1.6 | 0.00 | 0.00 | 0.00 | 87 | 975.6 |
| 20260902074923 | -17 | 169 | 1.6 | 1.6 | 0.00 | 0.00 | 0.00 | 87 | 975.7 |
| 20260902074423 | -17 | 170 | 1.6 | 1.6 | 0.00 | 0.00 | 0.00 | 89 | 975.6 |
| 20260902073922 | -17 | 170 | 1.6 | 1.6 | 0.00 | 0.00 | 0.00 | 89 | 975.6 |
| 20260902073422 | -17 | 169 | 1.6 | 1.6 | 0.00 | 0.00 | 0.00 | 90 | 975.7 |
| 20260902072922 | -17 | 199 | 1.6 | 0.0 | 0.00 | 0.00 | 0.00 | 90 | 975.8 |
| 20260902072422 | -17 | 199 | 0.0 | 0.0 | 0.00 | 0.00 | 0.00 | 93 | 976.0 |
| 20260902071921 | -17 | 199 | 0.0 | 0.0 | 0.00 | 0.00 | 0.00 | 94 | 975.8 |
| 20260902071421 | -17 | 199 | 0.0 | 0.0 | 0.00 | 0.00 | 0.00 | 94 | 975.8 |
| 20260902070920 | -17 | 199 | 0.0 | 0.0 | 0.00 | 0.00 | 0.00 | 95 | 975.8 |
| 20260902070420 | -17 | 199 | 0.0 | 0.0 | 0.00 | 0.00 | 0.00 | 95 | 975.9 |
| 20260902065920 | -17 | 199 | 3.2 | 3.2 | 0.00 | 0.00 | 0.00 | 95 | 975.8 |
| 20260902065420 | -17 | 199 | 0.0 | 0.0 | 0.00 | 0.00 | 0.00 | 95 | 975.7 |
| 20260902064921 | -17 | 199 | 1.6 | 0.0 | 0.00 | 0.00 | 0.00 | 95 | 975.6 |
| 20260902064419 | -17 | 199 | 0.0 | 0.0 | 0.00 | 0.00 | 0.00 | 95 | 975.8 |
| 20260902063919 | -17 | 200 | 3.2 | 3.2 | 0.00 | 0.00 | 0.00 | 95 | 975.7 |
| 20260902063418 | -17 | 199 | 3.2 | 1.6 | 0.00 | 0.00 | 0.00 | 95 | 976.0 |
| 20260902062918 | -17 | 199 | 1.6 | 1.6 | 0.00 | 0.00 | 0.00 | 94 | 975.7 |
| 20260902062418 | -17 | 199 | 0.0 | 0.0 | 0.00 | 0.00 | 0.00 | 94 | 975.8 |
| 20260902061917 | -17 | 199 | 1.6 | 1.6 | 0.00 | 0.00 | 0.00 | 93 | 976.1 |
| 20260902061417 | -17 | 199 | 1.6 | 1.6 | 0.00 | 0.00 | 0.00 | 92 | 976.0 |
| 20260902060917 | -17 | 199 | 0.0 | 0.0 | 0.00 | 0.00 | 0.00 | 92 | 976.0 |
| 20260902060416 | -17 | 199 | 1.6 | 1.6 | 0.00 | 0.00 | 0.00 | 92 | 975.8 |
| 20260902055916 | -17 | 199 | 1.6 | 1.6 | 0.00 | 0.00 | 0.00 | 93 | 976.1 |
| 20260902055416 | -17 | 199 | 1.6 | 1.6 | 0.00 | 0.00 | 0.00 | 93 | 976.2 |
| 20260902054916 | -17 | 199 | 1.6 | 1.6 | 0.00 | 0.00 | 0.00 | 93 | 976.0 |
| 20260902054415 | -17 | 199 | 1.6 | 1.6 | 0.00 | 0.00 | 0.00 | 93 | 976.0 |
| 20260902053915 | -17 | 199 | 0.0 | 0.0 | 0.00 | 0.00 | 0.00 | 94 | 976.1 |
| 20260902053415 | -17 | 199 | 0.0 | 1.6 | 0.00 | 0.00 | 0.00 | 94 | 975.9 |
| 20260902052914 | -17 | 199 | 0.0 | 0.0 | 0.00 | 0.00 | 0.00 | 94 | 976.2 |
| 20260902052414 | -17 | 199 | 0.0 | 0.0 | 0.00 | 0.00 | 0.00 | 95 | 976.1 |
| 20260902051914 | -17 | 199 | 0.0 | 0.0 | 0.00 | 0.00 | 0.00 | 95 | 976.1 |
| 20260902051413 | -17 | 199 | 1.6 | 1.6 | 0.00 | 0.00 | 0.00 | 95 | 976.1 |
| 20260902050913 | -17 | 199 | 1.6 | 1.6 | 0.00 | 0.00 | 0.00 | 94 | 976.1 |
| 20260902050413 | -17 | 200 | 3.2 | 1.6 | 0.00 | 0.00 | 0.00 | 94 | 976.1 |
| 20260902045912 | -17 | 199 | 0.0 | 1.6 | 0.00 | 0.00 | 0.00 | 94 | 976.1 |
| 20260902045412 | -17 | 199 | 0.0 | 0.0 | 0.00 | 0.00 | 0.00 | 94 | 975.6 |
| 20260902044912 | -17 | 199 | 0.0 | 0.0 | 0.00 | 0.00 | 0.00 | 94 | 975.6 |
| 20260902044411 | -17 | 199 | 0.0 | 0.0 | 0.00 | 0.00 | 0.00 | 94 | 975.8 |
| 20260902043911 | -17 | 199 | 0.0 | 0.0 | 0.00 | 0.00 | 0.00 | 93 | 975.8 |
| 20260902043411 | -17 | 199 | 1.6 | 1.6 | 0.00 | 0.00 | 0.00 | 93 | 975.7 |
| 20260902042910 | -17 | 199 | 1.6 | 1.6 | 0.00 | 0.00 | 0.00 | 93 | 975.7 |
| 20260902042410 | -17 | 199 | 1.6 | 1.6 | 0.00 | 0.00 | 0.00 | 93 | 975.6 |
| 20260902041910 | -17 | 199 | 0.0 | 0.0 | 0.00 | 0.00 | 0.00 | 92 | 975.8 |
| 20260902041409 | -17 | 199 | 1.6 | 1.6 | 0.00 | 0.00 | 0.00 | 91 | 976.0 |
| 20260902040911 | -17 | 199 | 0.0 | 0.0 | 0.00 | 0.00 | 0.00 | 90 | 975.9 |
| 20260902040409 | -17 | 199 | 0.0 | 0.0 | 0.00 | 0.00 | 0.00 | 90 | 976.2 |
| 20260902035909 | -17 | 199 | 0.0 | 0.0 | 0.00 | 0.00 | 0.00 | 89 | 976.2 |
| 20260902035408 | -17 | 199 | 0.0 | 0.0 | 0.00 | 0.00 | 0.00 | 90 | 976.2 |
| 20260902034908 | -17 | 199 | 0.0 | 0.0 | 0.00 | 0.00 | 0.00 | 90 | 976.3 |
| 20260902034407 | -17 | 199 | 0.0 | 0.0 | 0.00 | 0.00 | 0.00 | 89 | 976.3 |
| 20260902033907 | -17 | 199 | 0.0 | 0.0 | 0.00 | 0.00 | 0.00 | 88 | 976.4 |
| 20260902033407 | -17 | 199 | 0.0 | 0.0 | 0.00 | 0.00 | 0.00 | 88 | 976.4 |
| 20260902032907 | -17 | 199 | 0.0 | 0.0 | 0.00 | 0.00 | 0.00 | 89 | 976.4 |
| 20260902032406 | -17 | 199 | 1.6 | 1.6 | 0.00 | 0.00 | 0.00 | 91 | 976.5 |
| 20260902031906 | -17 | 199 | 0.0 | 0.0 | 0.00 | 0.00 | 0.00 | 91 | 976.4 |
| 20260902031405 | -17 | 199 | 0.0 | 0.0 | 0.00 | 0.00 | 0.00 | 91 | 976.5 |
| 20260902030905 | -17 | 199 | 1.6 | 1.6 | 0.00 | 0.00 | 0.00 | 90 | 976.5 |
| 20260902030405 | -17 | 199 | 1.6 | 1.6 | 0.00 | 0.00 | 0.00 | 90 | 976.4 |
| 20260902025904 | -17 | 199 | 0.0 | 0.0 | 0.00 | 0.00 | 0.00 | 90 | 976.5 |
| 20260902025404 | -17 | 199 | 1.6 | 1.6 | 0.00 | 0.00 | 0.00 | 90 | 976.5 |
| 20260902024904 | -17 | 199 | 1.6 | 1.6 | 0.00 | 0.00 | 0.00 | 90 | 976.5 |
| 20260902024403 | -17 | 199 | 3.2 | 3.2 | 0.00 | 0.00 | 0.00 | 90 | 976.4 |
| 20260902023903 | -17 | 199 | 3.2 | 3.2 | 0.00 | 0.00 | 0.00 | 90 | 976.4 |
| 20260902023403 | -17 | 199 | 3.2 | 3.2 | 0.00 | 0.00 | 0.00 | 90 | 976.3 |
| 20260902022902 | -17 | 199 | 3.2 | 3.2 | 0.00 | 0.00 | 0.00 | 89 | 976.2 |
| 20260902022402 | -17 | 198 | 1.6 | 1.6 | 0.00 | 0.00 | 0.00 | 87 | 976.1 |
| 20260902021902 | -17 | 198 | 0.0 | 0.0 | 0.00 | 0.00 | 0.00 | 85 | 976.0 |
| 20260902021401 | -17 | 198 | 0.0 | 0.0 | 0.00 | 0.00 | 0.00 | 86 | 976.1 |
| 20260902020901 | -17 | 198 | 1.6 | 1.6 | 0.00 | 0.00 | 0.00 | 86 | 975.7 |
| 20260902020401 | -17 | 198 | 0.0 | 0.0 | 0.00 | 0.00 | 0.00 | 86 | 975.9 |
| 20260902015900 | -17 | 198 | 1.6 | 1.6 | 0.00 | 0.00 | 0.00 | 87 | 975.8 |
| 20260902015400 | -17 | 198 | 1.6 | 1.6 | 0.00 | 0.00 | 0.00 | 88 | 975.9 |
| 20260902014900 | -17 | 198 | 0.0 | 0.0 | 0.00 | 0.00 | 0.00 | 88 | 975.7 |
| 20260902014359 | -17 | 198 | 1.6 | 1.6 | 0.00 | 0.00 | 0.00 | 88 | 975.7 |
| 20260902013859 | -17 | 198 | 0.0 | 0.0 | 0.00 | 0.00 | 0.00 | 89 | 975.6 |
| 20260902013359 | -17 | 198 | 0.0 | 0.0 | 0.00 | 0.00 | 0.00 | 88 | 975.7 |
| 20260902012859 | -17 | 198 | 1.6 | 1.6 | 0.00 | 0.00 | 0.00 | 88 | 975.6 |
| 20260902012358 | -17 | 198 | 0.0 | 0.0 | 0.00 | 0.00 | 0.00 | 87 | 975.5 |
| 20260902011858 | -17 | 198 | 1.6 | 1.6 | 0.00 | 0.00 | 0.00 | 85 | 975.5 |
| 20260902011358 | -17 | 198 | 1.6 | 1.6 | 0.00 | 0.00 | 0.00 | 84 | 975.4 |
| 20260902010857 | -17 | 198 | 0.0 | 0.0 | 0.00 | 0.00 | 0.00 | 83 | 975.4 |
| 20260902010357 | -17 | 198 | 0.0 | 0.0 | 0.00 | 0.00 | 0.00 | 82 | 975.5 |
| 20260902005856 | -17 | 198 | 0.0 | 0.0 | 0.00 | 0.00 | 0.00 | 80 | 975.7 |
| 20260902005356 | -17 | 198 | 0.0 | 0.0 | 0.00 | 0.00 | 0.00 | 78 | 975.5 |
| 20260902004856 | -17 | 198 | 0.0 | 0.0 | 0.00 | 0.00 | 0.00 | 79 | 975.8 |
| 20260902004356 | -17 | 198 | 0.0 | 0.0 | 0.00 | 0.00 | 0.00 | 78 | 975.9 |
| 20260902003855 | -17 | 198 | 0.0 | 0.0 | 0.00 | 0.00 | 0.00 | 79 | 976.0 |
| 20260902003355 | -17 | 198 | 0.0 | 0.0 | 0.00 | 0.00 | 0.00 | 79 | 976.2 |
| 20260902002855 | -17 | 199 | 1.6 | 1.6 | 0.00 | 0.00 | 0.00 | 79 | 976.2 |
| 20260902002354 | -17 | 199 | 3.2 | 1.6 | 0.00 | 0.00 | 0.00 | 79 | 976.2 |
| 20260902001854 | -17 | 199 | 3.2 | 3.2 | 0.00 | 0.00 | 0.00 | 80 | 976.2 |
| 20260902001354 | -17 | 199 | 1.6 | 1.6 | 0.00 | 0.00 | 0.00 | 80 | 976.3 |
| 20260902000853 | -17 | 199 | 1.6 | 1.6 | 0.00 | 0.00 | 0.00 | 80 | 976.4 |
| 20260902000353 | -17 | 198 | 1.6 | 1.6 | 0.00 | 0.00 | 0.00 | 80 | 976.6 |
| 20260901235852 | -17 | 198 | 1.6 | 1.6 | 0.00 | 0.00 | 0.00 | 79 | 976.7 |
| 20260901235352 | -17 | 198 | 0.0 | 0.0 | 0.00 | 0.00 | 0.00 | 78 | 976.5 |
| 20260901234852 | -17 | 198 | 0.0 | 0.0 | 0.00 | 0.00 | 0.00 | 77 | 976.4 |
| 20260901234351 | -17 | 198 | 0.0 | 0.0 | 0.00 | 0.00 | 0.00 | 77 | 976.2 |
| 20260901233851 | -17 | 198 | 0.0 | 0.0 | 0.00 | 0.00 | 0.00 | 76 | 976.2 |
| 20260901233351 | -17 | 198 | 1.6 | 1.6 | 0.00 | 0.00 | 0.00 | 75 | 976.3 |
| 20260901232851 | -17 | 198 | 0.0 | 0.0 | 0.00 | 0.00 | 0.00 | 77 | 976.1 |
| 20260901232350 | -17 | 198 | 1.6 | 1.6 | 0.00 | 0.00 | 0.00 | 75 | 976.1 |
| 20260901231850 | -17 | 198 | 1.6 | 1.6 | 0.00 | 0.00 | 0.00 | 75 | 976.1 |
| 20260901231350 | -17 | 198 | 1.6 | 1.6 | 0.00 | 0.00 | 0.00 | 73 | 975.9 |
| 20260901230849 | -17 | 198 | 1.6 | 1.6 | 0.00 | 0.00 | 0.00 | 73 | 976.0 |
| 20260901230349 | -17 | 199 | 1.6 | 1.6 | 0.00 | 0.00 | 0.00 | 73 | 976.0 |
| 20260901225849 | -17 | 199 | 1.6 | 1.6 | 0.00 | 0.00 | 0.00 | 73 | 976.0 |
| 20260901225348 | -17 | 199 | 0.0 | 0.0 | 0.00 | 0.00 | 0.00 | 70 | 976.1 |
| 20260901224848 | -17 | 199 | 1.6 | 1.6 | 0.00 | 0.00 | 0.00 | 69 | 976.3 |
| 20260901224347 | -17 | 199 | 1.6 | 1.6 | 0.00 | 0.00 | 0.00 | 71 | 976.1 |
| 20260901223847 | -17 | 199 | 1.6 | 1.6 | 0.00 | 0.00 | 0.00 | 71 | 976.0 |
| 20260901223347 | -17 | 199 | 1.6 | 0.0 | 0.00 | 0.00 | 0.00 | 68 | 976.2 |
| 20260901222847 | -17 | 199 | 1.6 | 1.6 | 0.00 | 0.00 | 0.00 | 68 | 976.0 |
| 20260901222346 | -17 | 199 | 0.0 | 0.0 | 0.00 | 0.00 | 0.00 | 68 | 976.1 |
| 20260901221846 | -17 | 199 | 1.6 | 1.6 | 0.00 | 0.00 | 0.00 | 67 | 976.2 |
| 20260901221346 | -17 | 199 | 1.6 | 1.6 | 0.00 | 0.00 | 0.00 | 70 | 976.0 |
| 20260901220845 | -17 | 199 | 0.0 | 0.0 | 0.00 | 0.00 | 0.00 | 68 | 976.0 |
| 20260901220345 | -17 | 199 | 3.2 | 3.2 | 0.00 | 0.00 | 0.00 | 67 | 976.2 |
| 20260901215845 | -17 | 199 | 0.0 | 0.0 | 0.00 | 0.00 | 0.00 | 70 | 976.2 |
| 20260901215344 | -17 | 199 | 0.0 | 0.0 | 0.00 | 0.00 | 0.00 | 68 | 976.1 |
| 20260901214844 | -17 | 199 | 1.6 | 1.6 | 0.00 | 0.00 | 0.00 | 68 | 976.1 |
| 20260901214344 | -17 | 199 | 1.6 | 1.6 | 0.00 | 0.00 | 0.00 | 69 | 976.1 |
| 20260901213844 | -17 | 199 | 1.6 | 1.6 | 0.00 | 0.00 | 0.00 | 71 | 975.9 |
| 20260901213343 | -17 | 197 | 1.6 | 1.6 | 0.00 | 0.00 | 0.00 | 75 | 975.8 |
| 20260901212843 | -17 | 196 | 1.6 | 1.6 | 0.00 | 0.00 | 0.00 | 77 | 976.0 |
| 20260901212343 | -17 | 196 | 0.0 | 0.0 | 0.00 | 0.00 | 0.00 | 77 | 975.5 |
| 20260901211842 | -17 | 196 | 1.6 | 1.6 | 0.00 | 0.00 | 0.00 | 77 | 975.8 |
| 20260901211342 | -17 | 196 | 0.0 | 0.0 | 0.00 | 0.00 | 0.00 | 78 | 975.8 |